Showing default

JILIN-01 GAOFEN 3H, 46460

Orbit data source: Space-Track

JILIN-01 GAOFEN 3H, 46460 is a Chinese payload satellite in SSO that was launched on Tue, 15 Sep 2020 UTC via a CHANG ZHENG 11 launch vehicle from the Yellow Sea Launch Area, China (YSLA). Payload-class satellites include a variety of spacecraft equipped with specific instruments for various scientific and technological missions. These include communications satellites like Starlink; space stations such as the ISS; scientific satellites like the Hubble; Earth observation satellites from companies like Planet Labs, Umbra, and HawkEye 360; GPS; miniature CubeSats for education and research; and military/defense satellites.

Loading next visibility...
Identifier
46460, 2020-065G
Orbit
SSO
Country
Flag of CNCN / PRC
Related business
None
Manufacturer
Unknown
Mission
Operational Commercial Imaging
Bus & Motor
Unknown
Mass
Unknown
Launch date (UTC)
2020-09-15 (6 years ago)
Launch vehicle
CHANG ZHENG 11
Launch site
Yellow Sea Launch Area, China (YSLA)
Object type
Payload
Rocket body
Debris
Shape & HBR
Box + 2 Pan, 0.8 m
Radar Cross Section
2.000 m², Medium (>0.1 m² and < 1m²)

Expand to show TLE details & history
Last TLE update: 2 days ago

TLE from 2 days ago
0 JILIN-01 GAOFEN 3H
1 46460U 20065G   26171.43791552  .00072771  00000-0  64935-3 0  9990
2 46460  97.2207 224.6096 0003234 329.0650  31.0420 15.68197681320394
Epoch: 2026-06-20T10:30Z
TLE epoch observation values (Epoch: 2026-06-20T10:30:35.900Z)
Latitude
-0.00012°
Longitude
158.30749°
Altitude
365.35 km
Speed
7.691 km/s
True Right ascension
14h 58m 26s
True Declination
0° 00' 00"
Sunlit
Object was in full shadow at epoch
Visualization orbit readout
Latitude
Unknown
Longitude
Unknown
Altitude
Unknown
Speed
Unknown
Apparent Right ascension
Unknown
Apparent Declination
Unknown
Sunlit
N/A
Visualization observer readout
Local Sidereal Time
00:50:24
Azimuth
Unknown
Elevation
Unknown
Doppler factor
Unknown
Orbital elements
Apogee altitude
363.131 km
Perigee altitude
358.772 km
Semi-major axis
6,739.089 km
Eccentricity
0.00032
Inclination
97.2207°
RAAN
224.6096°
Arg. of periapsis
329.065°
True anomaly
31.06112°
Mean anomaly
31.042°
Eccentric anomaly
31.05156°
Mean motion
3.92321 °/min
Orbital period
91.76 mins
BSTAR
0.00064935
Loading maneuver chart data...
Computing Atmospheric mass density...
Loading historical data...
Loading historical data...
Loading historical data...
Loading historical data...
Loading historical data...
Loading historical data...
Loading historical data...

Documentation

Showing up to 5 results
|